This demonstration page uses our WeatherBlox Daily Observations layout. Learn more.

Left ArrowRight Arrow

31.84235, -102.49876

Hourly Observations for November 25, 2015

Temp ( °F °C ) Dew Point ( °F °C ) Humidity (%) Winds ( mph kmh ) Pressure ( in mb ) Visibility ( mi km ) Precip ( " mm )
12:49 am 00:49 Mostly Cloudy with Mist and Fog 52 11 48 9 88 88 SSW 10 17 29.94 1014 4 6 0.00 0.00
12:53 am 00:53 Mostly Cloudy with Mist and Fog 51 10.6 49 9.4 92 92 SSW 9 15 29.89 1012 4 6 0.00 0.00
1:14 am 01:14 Partly Cloudy with Mist and Fog 51 10.6 49 9.4 92 92 SSW 10 17 29.94 1014 3 5 0.00 0.00
1:51 am 01:51 Mostly Cloudy with Mist and Fog 52 11 48 9 88 88 SSW 7 11 29.94 1014 3 5 0.00 0.00
1:53 am 01:53 Mostly Cloudy with Mist and Fog 50 10 49 9.4 96 96 SSW 7 11 29.88 1012 3 5 0.00 0.00
1:59 am 01:59 Mostly Cloudy with Mist and Fog 50 10 48 8.9 93 93 S 7 11 29.97 1015 3 4 0.00 0.00
2:43 am 02:43 Cloudy with Mist and Fog 51 10.6 50 10 96 96 SSW 9 15 29.94 1014 1 2 0.00 0.00
2:53 am 02:53 Mostly Cloudy with Fog 51 10.6 49 9.4 92 92 SSW 9 15 29.88 1012 0 0 0.00 0.00
3:53 am 03:53 Mostly Cloudy with Fog 51 10.6 50 10 96 96 S 10 17 29.87 1012 0 0 0.00 0.00
4:53 am 04:53 Mostly Cloudy with Fog 51 10.6 50 10 96 96 S 12 19 29.87 1012 0 0 0.00 0.00
5:08 am 05:08 Mostly Cloudy with Fog 51 10.6 50 10 96 96 S 8 13 29.94 1014 1 1 0.00 0.00
5:28 am 05:28 Mostly Cloudy with Fog 50 10 49 9.4 96 96 S 9 15 29.97 1015 0 0 0.00 0.00
5:53 am 05:53 Mostly Cloudy with Fog 50 10 49 9.4 96 96 S 9 15 29.88 1012 0 0 0.00 0.00
6:53 am 06:53 Mostly Cloudy with Mist and Fog 50 10 48 8.9 93 93 S 7 11 29.89 1012 1 1 0.00 0.00
7:02 am 07:02 Cloudy with Mist and Fog 50 10 49 9.4 96 96 S 7 11 29.97 1015 1 2 0.00 0.00
7:16 am 07:16 Mostly Cloudy with Fog 50 10 49 9.4 96 96 S 8 13 29.97 1015 1 1 0.00 0.00
7:48 am 07:48 Mostly Cloudy with Fog 52 11 50 10 94 94 S 9 15 29.94 1014 0 0 0.00 0.00
7:53 am 07:53 Mostly Cloudy with Fog 51 10.6 50 10 96 96 S 10 17 29.91 1013 1 1 0.00 0.00
8:09 am 08:09 Cloudy with Mist and Fog 51 10.6 50 10 96 96 S 10 17 29.94 1014 1 2 0.00 0.00
8:31 am 08:31 Cloudy with Mist and Fog 52 11.1 50 10 93 93 S 9 15 29.97 1015 2 3 0.00 0.00
8:53 am 08:53 Cloudy with Mist and Fog 52 11.1 50 10 93 93 S 12 19 29.93 1014 3 5 0.00 0.00
9:51 am 09:51 Mostly Cloudy 57 14 52 11 82 82 S 13 20 29.94 1014 8 13 0.00 0.00
9:53 am 09:53 Partly Cloudy 57 13.9 52 11.1 83 83 S 13 20 29.93 1014 9 14 0.00 0.00
10:53 am 10:53 Sunny 63 17.2 52 11.1 68 68 S 13 20 29.94 1014 10 16 0.00 0.00
11:53 am 11:53 Sunny 67 19.4 51 10.6 57 57 S 16 26 29.91 1013 10 16 0.00 0.00
12:53 pm 12:53 Sunny 70 21.1 52 11.1 53 53 S 22 35 29.87 1012 10 16 0.00 0.00
1:53 pm 13:53 Sunny 72 22.2 51 10.6 48 48 S 20 31 29.85 1011 10 16 0.00 0.00
2:53 pm 14:53 Sunny 75 23.9 51 10.6 43 43 S 17 28 29.82 1010 10 16 0.00 0.00
3:53 pm 15:53 Sunny 74 23.3 50 10 43 43 S 14 22 29.83 1010 10 16 0.00 0.00
4:53 pm 16:53 Sunny 73 22.8 51 10.6 46 46 SSE 17 28 29.83 1010 10 16 0.00 0.00
5:53 pm 17:53 Clear 68 20 53 11.7 59 59 SSE 18 30 29.85 1011 10 16 0.00 0.00
6:53 pm 18:53 Clear 65 18.3 54 12.2 68 68 SSE 16 26 29.87 1012 9 14 0.00 0.00
7:53 pm 19:53 Clear 62 16.7 55 12.8 78 78 S 18 30 29.90 1013 10 16 0.00 0.00
8:53 pm 20:53 Clear 61 16.1 55 12.8 81 81 S 16 26 29.90 1013 10 16 0.00 0.00
9:53 pm 21:53 Clear 62 16.7 56 13.3 80 80 S 22 35 29.90 1012 10 16 0.00 0.00
10:53 pm 22:53 Partly Cloudy 63 17.2 57 13.9 81 81 S 17 28 29.89 1012 10 16 0.00 0.00
11:04 pm 23:04 Mostly Cloudy 63 17.2 57 13.9 81 81 S 16 26 29.88 1012 10 16 0.00 0.00
11:53 pm 23:53 Cloudy 64 17.8 57 13.9 78 78 S 21 33 29.88 1012 10 16 0.00 0.00

Powered by AerisWeather